Погода в Чердыни

Погода в Чердыни : погода сейчас, прогноз погоды и архив. Всё, что Вы хотите узнать о погоде в Чердыни!

Хотите узнать прогноз погоды в Чердыни? Тогда Вам сюда: Погода в Чердыни

Поиск расширенной информации на нашем сайте:

Другие новости

Новости СМИ2

Главная страница сайта

Новости сайта

03.07.2017

Напоминаем, что на нашем специализированном сайте Метеоцентр.Азия вы можете получить высокодетализированные автоматические прогнозы погоды по пунктам России, СНГ и мира в авиационном формате (включающие направление и скорость ветра, видимость, явления погоды, количество и форму облачности, нижнюю и верхнюю границу облачности).


Погода в Чердыни - сегодня

Время (UTC), дата Ветер
(°,м/с) 
Видим.   Явления Облачность Т
(°С)
Тd
(°С)
f(%) Тe
(°С)
Pmin
(гПа)
dP
(гПа)
Po
(мм)
O2
(г/м3)
Тmin Tmax R s Состояние
почвы
00 15.02.18 270 (З) 10 км  слаб. снег  10/10 300 м 
[Ns]
-9.2 -10.6 90 -11  1032.7  0.3  754  316           
03 15.02.18 260 (З) 20000 м  слаб. снег  10/10 300 м 
[Ns]
-9.2 -10.5 90 -11  1033.1  0.4  754  316  -9.7    0.0  61  равномерный
сухой снег
100% 
09 15.02.18 270 (З) 20000 м    10/10 300 м 
[Sc]
-7.9 -10.1 84 -11  1034.8  1.2  756  315           
12 15.02.18 240 (ЮЗ) 20000 м    4/1 300 м верхняя 
[Sc|Ci fib]
-7.2 -9.9 81 -9  1035.5  0.8  756  314           
18 15.02.18 270 (З) 20000 м    ясно 
-10.6 -11.7 92 -12  1037.1  0.5  757  319           
21 15.02.18 260 (З) 20000 м    ясно 
-11.7 -12.8 92 -14  1037.5  0.3  757  320           
00 16.02.18 240 (ЮЗ) 20000 м    ясно 
-12.9 -14.2 90 -15  1037.9  0.3  758  322           
03 16.02.18 240 (ЮЗ) 4000 м  дымка  3/0 верхняя 
[Ci]
-14.3 -15.8 88 -14  1038.6  0.5  758  324  -14.3      61  равномерный
сухой снег
100% 
09 16.02.18 100 (В) 20000 м    3/0 верхняя 
[Ci fib]
-12.6 -14.4 86 -15  1038.9  0.1  758  322           
12 16.02.18 130 (ЮВ) 20000 м    4/0 верхняя 
[Ci]
-10.1 -12.6 82 -12  1038.1  -0.5  758  318           
18 16.02.18 190 (Ю) 20000 м    ясно 
-11.7 -14.3 81 -16  1036.7  -0.9  757  320           
21 16.02.18 210 (ЮЗ) 20000 м    3/0 верхняя 
[Ci]
-11.8 -14.7 79 -15  1035.9  -0.8  756  320           
00 17.02.18 170 (Ю) 20000 м    3/0 верхняя 
[Ci fib]
-13 -15.4 82 -16  1035.4  -0.7  756  321           
03 17.02.18 150 (ЮВ) 4000 м  слаб. снег  10/10 2000 м 
[Ns]
-12.5 -14.4 86 -16  1034.3  -1  755  320  -13.1    0.4  61  равномерный
сухой снег
100% 
06 17.02.18 140 (ЮВ) 2000 м  снег  10/10 300 м 
[Ns]
-11.8 -13.6 86 -15  1033  -1.2  754  319           
09 17.02.18 200 (Ю) 4000 м  слаб. снег  10/10 2000 м 
[Ns]
-8.1 -10.3 84 -12  1031.9  -0.7  754  314           
12 17.02.18 200 (Ю) 20000 м  слаб. снег  10/10 2000 м 
[Ns]
-6.9 -9.1 84 -10  1031.5  -0.3  753  312           
18 17.02.18 220 (ЮЗ) 4000 м  слаб. снег  10/10 300 м 
[Ns]
-6.1 -7.2 92 -9  1030.4  -0.5  753  311           
21 17.02.18 220 (ЮЗ) 2000 м  снег  10/10 300 м 
[Frnb|Ns]
-5.5 -6.4 93 -9  1030  -0.3  752  310           
03 18.02.18 190 (Ю) 20000 м  {снег}  9/8 300 м средняя 
[Sc|Ac trans]
-6.7 -8.8 85 -9  1029.6  752  312  -7    63  равномерный
сухой снег
100% 
09 18.02.18 180 (Ю) 4000 м  слаб. снег  10/10 2000 м 
[Ns]
-6.5 -9.8 77 -10  1029.3  -0.3  752  311           
12 18.02.18 170 (Ю) 4000 м  слаб. снег  10/8 2000 м средняя, верхняя 
[As op|Ci]
-5.8 -8 84 -8  1028.2  -0.9  751  310           
18 18.02.18 190 (Ю) 4000 м  слаб. снег  10/10 2000 м 
[Ns]
-7.1 -8.5 90 -11  1027.5  -0.6  750  311           
21 18.02.18 190 (Ю) 2000 м  снег  10/10 300 м 
[Ns]
-7.3 -8.7 90 -11  1027.3  -0.2  750  312           
00 19.02.18 180 (Ю) 4000 м  слаб. снег  10/10 300 м 
[Frnb|Ns]
-8 -9.6 88 -11  1027  -0.4  750  312           
Время (UTC), дата Ветер
(°,м/с) 
Видим.   Явления Облачность Т
(°С)
Тd
(°С)
f(%) Тe
(°С)
Pmin
(гПа)
dP
(гПа)
Po
(мм)
O2
(г/м3)
Тmin Tmax R s Состояние
почвы

Для получения пояснительной информации подведите курсор к названию столбца.

ПОГОДА в Чердыни - архив

Всё, что Вы хотите узнать о погоде в Чердыни - удобно и подробно!

Выберите нужную дату (начиная с 1 января 2015* года) и нажмите кнопку "Найти".
Будут отображены архивные сводки погоды по пункту Чердынь, начиная с указанной даты.


Отображать данные в формате CSV (для использования в таблицах Excel)


Внимание! Наш архив погоды предназначен исключительно для личного некоммерческого использования в познавательных целях. Если Вам необходимы официальные справки о состоянии погоды (для производственных, юридических, коммерческих и т.п. целей), обращайтесь в органы Росгидромета.

*Примечание: данная дата относится к архиву по метеостанциям СССР (Россия, СНГ, Балтия).
Архив по метеостанциям Зарубежной Европы и Азии (кроме Китая) хранится 10 дней, по другим регионам земного шара (Китай, Африка, Америка, Австралия, Океания) - 1 день.

Чердынь - район местоположения метеостанции


Название, широта, долгота, высота метеостанции:
Чердынь 60.4°ш. 56.5°д. 207 м над ур. моря [Российская Федерация]

Дополнительная информация

В oтличие oт бoльшинства пoгoдных сайтoв мы публикуем пoдрoбную метеoинфoрмацию в детальнoм прoфессиoнальнoм фoрмате.

Характеристики температуры и влажнoсти вoздуха измеряются на высoте 2 м в тени вдали oт зданий и деревьев.
Скoрoсть ветра измеряется на высoте 10 м (на урoвне рoста челoвека скoрoсть ветра ниже в 1.5-2 раза). Если метеoстанция нахoдится в гoрoде или в лесу, тo скoрoсть ветра занижена на 2-4 м/с пo сравнению с oткрытым местoм. Скoрoсть ветра над акватoриями крупных рек и oзёр, а также на вершинах хoлмoв на 2-5 м/с выше, чем в oбычных услoвиях.
Атмoсфернoе давление в разных тoчках местнoсти мoжет значительнo oтличаться oт давления на метеoстанции, в зависимoсти oт услoвий рельефа (при пoдъёме на 10 м давление пoнижается примернo на 1 мм рт.ст.).